Syracuse, NY

2:07 AM EST on November 20, 2019 (GMT -0500)
Syracuse Hancock International

Weather History for KSYR - September, 2019

Change the Weather History Date:

Monday, September 2, 2019

  Actual Average Record
Temperature  
Mean Temperature 67 °F 67 °F  
Max Temperature 75 °F 77 °F 96 °F (1953)
Min Temperature 59 °F 57 °F 40 °F (1967)
Degree Days  
Heating Degree Days 0 2  
Month to date heating degree days 3 3  
Since 1 July heating degree days 8 29  
Cooling Degree Days 2 3  
Month to date cooling degree days 2 7  
Year to date cooling degree days 570 520  
Growing Degree Days 17 (Base 50)    
Moisture  
Dew Point 60 °F    
Average Humidity 81    
Maximum Humidity 93    
Minimum Humidity 51    
Precipitation  
Precipitation 0.90 in 0.12 in 1.28 in (1924)
Month to date precipitation 1.51 0.24  
Year to date precipitation 32.15 24.83  
Snow  
Snow 0.00 in 0.00 in 0.00 in (2002)
Month to date snowfall 0.0 0.0  
Since 1 July snowfall T 0.0  
Since 1 September snowfall 0.0 0.0  
Snow Depth 0.00 in    
Sea Level Pressure  
Sea Level Pressure 30.01 in    
Wind  
Wind Speed 7 mph ()    
Max Wind Speed 15 mph    
Max Gust Speed 21 mph    
Visibility 8.5 miles    
Events Rain , Thunderstorm    
T = Trace of Precipitation, MM = Missing Value Source: Averaged Metar Reports

Daily Weather History Graph

Daily Weather History Graph

Search for Another Location

Airport or City:

Astronomy

Sep. 02, 2019 Rise Set
Actual Time 6:29 AM EDT 7:37 PM EDT
Civil Twilight 6:00 AM EDT 8:07 PM EDT
Nautical Twilight 5:25 AM EDT 8:41 PM EDT
Astronomical Twilight 4:48 AM EDT 9:18 PM EDT
Moon 10:14 AM EDT (9/2) 9:52 PM EDT (9/2)
Length of Visible Light 14h 06m
Length of Day
13h 08m
Waxing Crescent, 15% of the Moon is Illuminated
Sep 2
Waxing Crescent
Sep 5
First Quarter
Sep 14
Full
Sep 21
Last Quarter
Sep 28
New

Hourly Weather History & Observations

Time (EDT) Temp. Dew Point Humidity Pressure Visibility Wind Dir Wind Speed Gust Speed Precip Events Conditions
12:00 AM 63.0 °F 61.0 °F 93% 30.11 in 2.5 mi NNW 8.1 mph - 0.02 in Rain , Thunderstorm Thunderstorms and Rain
12:12 AM 63.0 °F 61.0 °F 93% 30.13 in 5.0 mi NW 10.4 mph - 0.08 in Rain , Thunderstorm Light Thunderstorms and Rain
12:23 AM 63.0 °F 61.0 °F 93% 30.13 in 3.0 mi NNW 9.2 mph - 0.13 in Rain Rain
12:43 AM 63.0 °F 61.0 °F 93% 30.12 in 2.0 mi Variable 3.5 mph - 0.32 in Rain Heavy Rain
12:54 AM 63.0 °F 61.0 °F 93% 30.11 in 3.0 mi South 3.5 mph - 0.38 in Rain Rain
1:54 AM 63.0 °F 61.0 °F 93% 30.09 in 7.0 mi ESE 8.1 mph - 0.16 in Rain Light Rain
2:54 AM 63.0 °F 61.0 °F 93% 30.06 in 6.0 mi ESE 5.8 mph - 0.13 in Rain Light Rain
3:54 AM 64.9 °F 61.0 °F 87% 30.02 in 10.0 mi SE 6.9 mph - 0.09 in Rain Light Rain
4:54 AM 66.0 °F 61.0 °F 84% 30.00 in 10.0 mi SSE 6.9 mph - 0.00 in Rain Light Rain
5:54 AM 66.0 °F 60.1 °F 81% 29.99 in 10.0 mi South 9.2 mph - 0.00 in Rain Light Rain
6:54 AM 64.9 °F 61.0 °F 87% 29.99 in 10.0 mi SSW 3.5 mph - 0.02 in Rain Light Rain
7:54 AM 66.9 °F 62.1 °F 84% 29.98 in 10.0 mi Calm Calm - 0.00 in Rain Light Rain
8:47 AM 66.0 °F 62.1 °F 87% 29.99 in 2.5 mi SSW 9.2 mph - 0.00 in Rain Rain
8:54 AM 66.0 °F 62.1 °F 87% 29.98 in 2.5 mi SSW 6.9 mph - 0.03 in Rain Light Rain
9:15 AM 66.0 °F 63.0 °F 90% 29.99 in 10.0 mi South 3.5 mph - 0.04 in Rain Light Rain
9:54 AM 66.9 °F 64.0 °F 90% 29.97 in 10.0 mi South 3.5 mph - 0.08 in Rain Light Rain
10:31 AM 68.0 °F 64.0 °F 87% 29.98 in 10.0 mi SW 5.8 mph - 0.01 in Rain Light Rain
10:54 AM 68.0 °F 64.0 °F 87% 29.97 in 10.0 mi West 8.1 mph - 0.01 in   Mostly Cloudy
11:29 AM 68.0 °F 64.0 °F 87% 29.99 in 10.0 mi West 11.5 mph - N/A   Overcast
11:54 AM 68.0 °F 64.0 °F 87% 29.98 in 10.0 mi West 11.5 mph - N/A   Overcast
12:06 PM 68.0 °F 63.0 °F 84% 29.99 in 10.0 mi West 13.8 mph - 0.00 in Rain Light Rain
12:37 PM 68.0 °F 62.1 °F 81% 29.99 in 10.0 mi WNW 13.8 mph - 0.00 in   Overcast
12:47 PM 69.1 °F 61.0 °F 75% 30.00 in 10.0 mi WNW 12.7 mph - 0.00 in   Overcast
12:54 PM 68.0 °F 59.0 °F 73% 29.98 in 10.0 mi WNW 10.4 mph - 0.00 in   Overcast
1:30 PM 68.0 °F 60.1 °F 76% 30.00 in 10.0 mi West 9.2 mph - N/A   Overcast
1:54 PM 69.1 °F 62.1 °F 78% 29.98 in 10.0 mi West 9.2 mph - N/A   Overcast
2:35 PM 69.1 °F 61.0 °F 75% 29.98 in 10.0 mi WNW 5.8 mph - N/A   Mostly Cloudy
2:54 PM 69.1 °F 62.1 °F 78% 29.97 in 10.0 mi West 6.9 mph - N/A   Mostly Cloudy
3:05 PM 71.1 °F 62.1 °F 73% 29.98 in 10.0 mi West 6.9 mph - N/A   Mostly Cloudy
3:54 PM 75.0 °F 61.0 °F 62% 29.96 in 10.0 mi West 11.5 mph 19.6 mph N/A   Mostly Cloudy
4:54 PM 73.0 °F 55.9 °F 55% 29.97 in 10.0 mi WNW 11.5 mph - N/A   Partly Cloudy
5:54 PM 72.0 °F 53.1 °F 51% 29.98 in 10.0 mi West 12.7 mph - N/A   Partly Cloudy
6:54 PM 70.0 °F 52.0 °F 53% 29.99 in 10.0 mi West 9.2 mph - N/A   Partly Cloudy
7:54 PM 66.0 °F 53.1 °F 63% 29.99 in 10.0 mi West 5.8 mph - N/A   Partly Cloudy
8:54 PM 62.1 °F 55.9 °F 80% 30.00 in 10.0 mi Calm Calm - N/A   Partly Cloudy
9:54 PM 61.0 °F 55.9 °F 83% 30.01 in 10.0 mi Calm Calm - N/A   Scattered Clouds
10:54 PM 62.1 °F 57.0 °F 84% 30.03 in 10.0 mi SSE 3.5 mph - N/A   Mostly Cloudy
11:54 PM 62.1 °F 57.0 °F 84% 30.03 in 10.0 mi SE 3.5 mph - N/A   Overcast